Tabellarische Ansicht des 28.12.2014


Die einzelnen Werte des Tages

Uhrzeit Temperatur Luftdruck Luftfeuchte Wind Hi-Wind Taupunkt THW Index Wind Chill Heat Index Solar- strahlung Regen

00:00

-3.2 C

1008.9 hpa

76 %

14.5 km/h aus 117

33.8 km/h aus NE

-6.8 C

-8.4 C

-8.2 C

-3.4 C

0 W/m

0.00 mm

00:05

-3.2 C

1008.9 hpa

77 %

12.9 km/h aus 116

30.6 km/h aus NNE

-6.6 C

-8.1 C

-7.8 C

-3.4 C

0 W/m

0.00 mm

00:10

-3.2 C

1008.9 hpa

77 %

11.3 km/h aus 117

20.9 km/h aus NE

-6.6 C

-7.7 C

-7.4 C

-3.4 C

0 W/m

0.00 mm

00:15

-3.2 C

1009.3 hpa

77 %

9.7 km/h aus 117

22.5 km/h aus NNE

-6.7 C

-7.3 C

-7.1 C

-3.4 C

0 W/m

0.00 mm

00:20

-3.2 C

1009.3 hpa

77 %

9.7 km/h aus 116

22.5 km/h aus NE

-6.7 C

-7.3 C

-7.1 C

-3.4 C

0 W/m

0.00 mm

00:25

-3.2 C

1009.3 hpa

77 %

9.7 km/h aus 116

20.9 km/h aus NE

-6.7 C

-7.3 C

-7.1 C

-3.4 C

0 W/m

0.00 mm

00:30

-3.2 C

1009.5 hpa

76 %

11.3 km/h aus 117

20.9 km/h aus N

-6.9 C

-7.7 C

-7.5 C

-3.4 C

0 W/m

0.00 mm

00:35

-3.3 C

1009.5 hpa

76 %

14.5 km/h aus 117

30.6 km/h aus NE

-6.9 C

-8.6 C

-8.3 C

-3.5 C

0 W/m

0.00 mm

00:40

-3.3 C

1009.5 hpa

76 %

12.9 km/h aus 117

27.4 km/h aus NNE

-6.9 C

-8.2 C

-7.9 C

-3.5 C

0 W/m

0.00 mm

00:45

-3.3 C

1009.7 hpa

76 %

9.7 km/h aus 117

22.5 km/h aus NE

-7.0 C

-7.4 C

-7.2 C

-3.6 C

0 W/m

0.00 mm

00:50

-3.3 C

1009.7 hpa

76 %

12.9 km/h aus 116

30.6 km/h aus NNE

-7.0 C

-8.3 C

-8.1 C

-3.6 C

0 W/m

0.00 mm

00:55

-3.3 C

1009.7 hpa

76 %

11.3 km/h aus 117

24.1 km/h aus NE

-7.0 C

-7.8 C

-7.6 C

-3.6 C

0 W/m

0.00 mm

01:00

-3.4 C

1010.0 hpa

76 %

14.5 km/h aus 117

24.1 km/h aus NNE

-7.0 C

-8.7 C

-8.4 C

-3.6 C

0 W/m

0.00 mm

01:05

-3.4 C

1010.0 hpa

76 %

17.7 km/h aus 117

33.8 km/h aus NNE

-7.0 C

-9.3 C

-9.1 C

-3.6 C

0 W/m

0.00 mm

01:10

-3.4 C

1010.0 hpa

76 %

16.1 km/h aus 117

32.2 km/h aus N

-7.0 C

-9.0 C

-8.8 C

-3.6 C

0 W/m

0.00 mm

01:15

-3.4 C

1010.0 hpa

76 %

14.5 km/h aus 116

30.6 km/h aus NNE

-7.1 C

-8.8 C

-8.6 C

-3.7 C

0 W/m

0.00 mm

01:20

-3.4 C

1010.0 hpa

76 %

14.5 km/h aus 117

29.0 km/h aus NNE

-7.1 C

-8.8 C

-8.6 C

-3.7 C

0 W/m

0.00 mm

01:25

-3.5 C

1010.0 hpa

76 %

9.7 km/h aus 116

24.1 km/h aus NNE

-7.1 C

-7.6 C

-7.4 C

-3.7 C

0 W/m

0.00 mm

01:30

-3.6 C

1010.5 hpa

76 %

16.1 km/h aus 117

32.2 km/h aus NNE

-7.2 C

-9.2 C

-9.0 C

-3.7 C

0 W/m

0.00 mm

01:35

-3.6 C

1010.5 hpa

76 %

12.9 km/h aus 117

29.0 km/h aus NNE

-7.2 C

-8.4 C

-8.3 C

-3.7 C

0 W/m

0.00 mm

01:40

-3.6 C

1010.5 hpa

77 %

11.3 km/h aus 117

24.1 km/h aus ENE

-7.1 C

-8.1 C

-7.9 C

-3.8 C

0 W/m

0.00 mm

01:45

-3.7 C

1010.9 hpa

77 %

9.7 km/h aus 117

27.4 km/h aus NNE

-7.1 C

-7.7 C

-7.6 C

-3.8 C

0 W/m

0.00 mm

01:50

-3.7 C

1010.9 hpa

77 %

11.3 km/h aus 117

24.1 km/h aus N

-7.1 C

-8.2 C

-8.1 C

-3.8 C

0 W/m

0.00 mm

01:55

-3.7 C

1010.9 hpa

77 %

16.1 km/h aus 117

32.2 km/h aus NNE

-7.2 C

-9.4 C

-9.2 C

-3.9 C

0 W/m

0.00 mm

02:00

-3.8 C

1011.1 hpa

76 %

12.9 km/h aus 118

22.5 km/h aus NNE

-7.4 C

-8.7 C

-8.6 C

-3.9 C

0 W/m

0.00 mm

02:05

-3.8 C

1011.1 hpa

76 %

12.9 km/h aus 115

29.0 km/h aus NE

-7.4 C

-8.8 C

-8.7 C

-4.0 C

0 W/m

0.00 mm

02:10

-3.8 C

1011.1 hpa

76 %

8.0 km/h aus 116

30.6 km/h aus NNE

-7.4 C

-7.4 C

-7.2 C

-4.0 C

0 W/m

0.00 mm

02:15

-3.9 C

1011.6 hpa

77 %

9.7 km/h aus 117

22.5 km/h aus NE

-7.3 C

-8.0 C

-7.8 C

-4.1 C

0 W/m

0.00 mm

02:20

-3.9 C

1011.6 hpa

77 %

11.3 km/h aus 117

25.7 km/h aus NNE

-7.4 C

-8.6 C

-8.4 C

-4.1 C

0 W/m

0.00 mm

02:25

-4.0 C

1011.6 hpa

77 %

9.7 km/h aus 116

25.7 km/h aus N

-7.4 C

-8.1 C

-7.9 C

-4.2 C

0 W/m

0.00 mm

02:30

-4.0 C

1012.0 hpa

77 %

11.3 km/h aus 117

24.1 km/h aus N

-7.4 C

-8.6 C

-8.4 C

-4.2 C

0 W/m

0.00 mm

02:35

-4.1 C

1012.0 hpa

77 %

16.1 km/h aus 113

30.6 km/h aus N

-7.5 C

-9.8 C

-9.6 C

-4.2 C

0 W/m

0.00 mm

02:40

-4.1 C

1012.0 hpa

76 %

9.7 km/h aus 117

20.9 km/h aus N

-7.7 C

-8.3 C

-8.1 C

-4.3 C

0 W/m

0.00 mm

02:45

-4.1 C

1012.5 hpa

76 %

9.7 km/h aus 116

22.5 km/h aus NNE

-7.7 C

-8.3 C

-8.1 C

-4.3 C

0 W/m

0.00 mm

02:50

-4.2 C

1012.5 hpa

76 %

12.9 km/h aus 117

25.7 km/h aus NNE

-7.8 C

-9.2 C

-9.1 C

-4.3 C

0 W/m

0.00 mm

02:55

-4.2 C

1012.5 hpa

76 %

8.0 km/h aus 117

19.3 km/h aus NE

-7.8 C

-7.9 C

-7.7 C

-4.4 C

0 W/m

0.00 mm

03:00

-4.2 C

1012.6 hpa

76 %

11.3 km/h aus 117

22.5 km/h aus NNE

-7.8 C

-8.9 C

-8.7 C

-4.4 C

0 W/m

0.00 mm

03:05

-4.3 C

1012.6 hpa

76 %

9.7 km/h aus 118

27.4 km/h aus NNE

-7.9 C

-8.4 C

-8.3 C

-4.4 C

0 W/m

0.00 mm

03:10

-4.3 C

1012.6 hpa

77 %

9.7 km/h aus 117

22.5 km/h aus NNE

-7.8 C

-8.6 C

-8.4 C

-4.5 C

0 W/m

0.00 mm

03:15

-4.3 C

1013.1 hpa

77 %

11.3 km/h aus 117

27.4 km/h aus NNE

-7.8 C

-9.0 C

-8.8 C

-4.5 C

0 W/m

0.00 mm

03:20

-4.4 C

1013.1 hpa

76 %

12.9 km/h aus 117

30.6 km/h aus NE

-8.0 C

-9.5 C

-9.3 C

-4.6 C

0 W/m

0.00 mm

03:25

-4.4 C

1013.1 hpa

76 %

14.5 km/h aus 117

27.4 km/h aus NNE

-8.0 C

-9.8 C

-9.7 C

-4.6 C

0 W/m

0.00 mm

03:30

-4.4 C

1013.4 hpa

77 %

9.7 km/h aus 115

19.3 km/h aus NNE

-7.9 C

-8.7 C

-8.5 C

-4.6 C

0 W/m

0.00 mm

03:35

-4.4 C

1013.4 hpa

77 %

12.9 km/h aus 116

27.4 km/h aus N

-7.9 C

-9.6 C

-9.4 C

-4.6 C

0 W/m

0.00 mm

03:40

-4.5 C

1013.4 hpa

77 %

9.7 km/h aus 116

20.9 km/h aus NNE

-7.9 C

-8.7 C

-8.6 C

-4.7 C

0 W/m

0.00 mm

03:45

-4.5 C

1013.7 hpa

77 %

11.3 km/h aus 117

32.2 km/h aus N

-7.9 C

-9.2 C

-9.1 C

-4.7 C

0 W/m

0.00 mm

03:50

-4.5 C

1013.7 hpa

77 %

11.3 km/h aus 115

27.4 km/h aus NNE

-7.9 C

-9.2 C

-9.1 C

-4.7 C

0 W/m

0.00 mm

03:55

-4.5 C

1013.7 hpa

77 %

8.0 km/h aus 117

19.3 km/h aus N

-7.9 C

-8.2 C

-8.0 C

-4.7 C

0 W/m

0.00 mm

04:00

-4.6 C

1014.2 hpa

77 %

11.3 km/h aus 117

22.5 km/h aus NNE

-8.0 C

-9.3 C

-9.1 C

-4.7 C

0 W/m

0.00 mm

04:05

-4.6 C

1014.2 hpa

76 %

11.3 km/h aus 116

25.7 km/h aus NNE

-8.1 C

-9.3 C

-9.1 C

-4.7 C

0 W/m

0.00 mm

04:10

-4.6 C

1014.2 hpa

76 %

9.7 km/h aus 118

22.5 km/h aus N

-8.2 C

-8.9 C

-8.7 C

-4.8 C

0 W/m

0.00 mm

04:15

-4.7 C

1014.5 hpa

76 %

8.0 km/h aus 117

20.9 km/h aus NNE

-8.3 C

-8.4 C

-8.2 C

-4.8 C

0 W/m

0.00 mm

04:20

-4.7 C

1014.5 hpa

76 %

11.3 km/h aus 117

25.7 km/h aus NNE

-8.3 C

-9.4 C

-9.2 C

-4.8 C

0 W/m

0.00 mm

04:25

-4.7 C

1014.5 hpa

77 %

9.7 km/h aus 116

20.9 km/h aus N

-8.1 C

-8.9 C

-8.8 C

-4.8 C

0 W/m

0.00 mm

04:30

-4.7 C

1014.7 hpa

77 %

4.8 km/h aus 117

16.1 km/h aus NNE

-8.1 C

-7.0 C

-6.8 C

-4.9 C

0 W/m

0.00 mm

04:35

-4.7 C

1014.7 hpa

77 %

4.8 km/h aus 116

19.3 km/h aus NNE

-8.1 C

-7.0 C

-6.8 C

-4.9 C

0 W/m

0.00 mm

04:40

-4.8 C

1014.7 hpa

77 %

3.2 km/h aus 116

12.9 km/h aus NE

-8.2 C

-6.0 C

-5.8 C

-4.9 C

0 W/m

0.00 mm

04:45

-4.8 C

1015.1 hpa

77 %

6.4 km/h aus 117

14.5 km/h aus NNE

-8.2 C

-7.9 C

-7.8 C

-5.0 C

0 W/m

0.00 mm

04:50

-4.8 C

1015.1 hpa

77 %

4.8 km/h aus 117

14.5 km/h aus NNW

-8.2 C

-7.1 C

-6.9 C

-5.0 C

0 W/m

0.00 mm

04:55

-4.9 C

1015.1 hpa

77 %

6.4 km/h aus 116

16.1 km/h aus N

-8.3 C

-8.0 C

-7.8 C

-5.1 C

0 W/m

0.00 mm

05:00

-4.9 C

1015.3 hpa

77 %

8.0 km/h aus 117

19.3 km/h aus NNE

-8.3 C

-8.7 C

-8.5 C

-5.1 C

0 W/m

0.00 mm

05:05

-4.9 C

1015.3 hpa

77 %

4.8 km/h aus 116

12.9 km/h aus NNE

-8.4 C

-7.3 C

-7.1 C

-5.1 C

0 W/m

0.00 mm

05:10

-5.0 C

1015.3 hpa

77 %

4.8 km/h aus 115

11.3 km/h aus N

-8.4 C

-7.3 C

-7.2 C

-5.2 C

0 W/m

0.00 mm

05:15

-5.0 C

1015.7 hpa

77 %

8.0 km/h aus 118

16.1 km/h aus N

-8.4 C

-8.8 C

-8.6 C

-5.2 C

0 W/m

0.00 mm

05:20

-5.1 C

1015.7 hpa

77 %

4.8 km/h aus 117

14.5 km/h aus N

-8.5 C

-7.4 C

-7.2 C

-5.2 C

0 W/m

0.00 mm

05:25

-5.1 C

1015.7 hpa

77 %

8.0 km/h aus 117

17.7 km/h aus N

-8.5 C

-8.9 C

-8.7 C

-5.3 C

0 W/m

0.00 mm

05:30

-5.2 C

1015.9 hpa

76 %

6.4 km/h aus 117

19.3 km/h aus N

-8.7 C

-8.3 C

-8.2 C

-5.3 C

0 W/m

0.00 mm

05:35

-5.2 C

1015.9 hpa

76 %

4.8 km/h aus 117

12.9 km/h aus N

-8.7 C

-7.5 C

-7.3 C

-5.3 C

0 W/m

0.00 mm

05:40

-5.2 C

1015.9 hpa

76 %

4.8 km/h aus 117

17.7 km/h aus N

-8.8 C

-7.6 C

-7.4 C

-5.4 C

0 W/m

0.00 mm

05:45

-5.3 C

1016.2 hpa

76 %

4.8 km/h aus 115

11.3 km/h aus NNE

-8.8 C

-7.6 C

-7.4 C

-5.4 C

0 W/m

0.00 mm

05:50

-5.3 C

1016.2 hpa

76 %

4.8 km/h aus 116

11.3 km/h aus N

-8.8 C

-7.6 C

-7.4 C

-5.4 C

0 W/m

0.00 mm

05:55

-5.3 C

1016.2 hpa

76 %

4.8 km/h aus 117

9.7 km/h aus NNW

-8.9 C

-7.7 C

-7.5 C

-5.5 C

0 W/m

0.00 mm

06:00

-5.3 C

1016.4 hpa

76 %

4.8 km/h aus 117

12.9 km/h aus N

-8.9 C

-7.7 C

-7.5 C

-5.5 C

0 W/m

0.00 mm

06:05

-5.4 C

1016.4 hpa

76 %

3.2 km/h aus 116

9.7 km/h aus NNE

-9.0 C

-6.7 C

-6.5 C

-5.6 C

0 W/m

0.00 mm

06:10

-5.4 C

1016.4 hpa

76 %

4.8 km/h aus 117

11.3 km/h aus N

-9.0 C

-7.8 C

-7.7 C

-5.6 C

0 W/m

0.00 mm

06:15

-5.5 C

1016.8 hpa

76 %

3.2 km/h aus 117

11.3 km/h aus N

-9.1 C

-6.8 C

-6.6 C

-5.7 C

0 W/m

0.00 mm

06:20

-5.5 C

1016.8 hpa

76 %

6.4 km/h aus 117

16.1 km/h aus N

-9.1 C

-8.7 C

-8.6 C

-5.7 C

0 W/m

0.00 mm

06:25

-5.6 C

1016.8 hpa

76 %

4.8 km/h aus 116

14.5 km/h aus N

-9.1 C

-7.9 C

-7.8 C

-5.7 C

0 W/m

0.00 mm

06:30

-5.6 C

1017.3 hpa

76 %

4.8 km/h aus 117

11.3 km/h aus N

-9.1 C

-7.9 C

-7.8 C

-5.7 C

0 W/m

0.00 mm

06:35

-5.6 C

1017.3 hpa

76 %

4.8 km/h aus 117

14.5 km/h aus N

-9.2 C

-8.0 C

-7.8 C

-5.8 C

0 W/m

0.00 mm

06:40

-5.6 C

1017.3 hpa

76 %

6.4 km/h aus 116

20.9 km/h aus NNE

-9.2 C

-8.8 C

-8.7 C

-5.8 C

0 W/m

0.00 mm

06:45

-5.7 C

1017.6 hpa

76 %

6.4 km/h aus 117

20.9 km/h aus NNE

-9.2 C

-8.9 C

-8.7 C

-5.8 C

0 W/m

0.00 mm

06:50

-5.7 C

1017.6 hpa

76 %

4.8 km/h aus 116

11.3 km/h aus NNE

-9.2 C

-8.1 C

-7.9 C

-5.8 C

0 W/m

0.00 mm

06:55

-5.7 C

1017.6 hpa

76 %

8.0 km/h aus 117

17.7 km/h aus N

-9.3 C

-9.6 C

-9.4 C

-5.9 C

0 W/m

0.00 mm

07:00

-5.7 C

1018.0 hpa

76 %

4.8 km/h aus 116

16.1 km/h aus NNE

-9.3 C

-8.1 C

-7.9 C

-5.9 C

0 W/m

0.00 mm

07:05

-5.7 C

1018.0 hpa

76 %

1.6 km/h aus 117

6.4 km/h aus NNE

-9.3 C

-5.9 C

-5.7 C

-5.9 C

0 W/m

0.00 mm

07:10

-5.8 C

1018.0 hpa

75 %

1.6 km/h aus 116

8.0 km/h aus N

-9.5 C

-5.9 C

-5.8 C

-5.9 C

0 W/m

0.00 mm

07:15

-5.8 C

1018.4 hpa

76 %

3.2 km/h aus 117

8.0 km/h aus N

-9.3 C

-7.1 C

-6.9 C

-5.9 C

0 W/m

0.00 mm

07:20

-5.8 C

1018.4 hpa

75 %

3.2 km/h aus 117

8.0 km/h aus N

-9.6 C

-7.2 C

-7.0 C

-6.0 C

0 W/m

0.00 mm

07:25

-5.9 C

1018.4 hpa

75 %

4.8 km/h aus 117

11.3 km/h aus N

-9.6 C

-8.3 C

-8.2 C

-6.1 C

0 W/m

0.00 mm

07:30

-5.9 C

1018.9 hpa

75 %

4.8 km/h aus 117

12.9 km/h aus N

-9.6 C

-8.3 C

-8.2 C

-6.1 C

0 W/m

0.00 mm

07:35

-5.9 C

1018.9 hpa

75 %

6.4 km/h aus 117

12.9 km/h aus N

-9.7 C

-9.2 C

-9.1 C

-6.1 C

0 W/m

0.00 mm

07:40

-5.9 C

1018.9 hpa

75 %

4.8 km/h aus 115

11.3 km/h aus N

-9.7 C

-8.4 C

-8.2 C

-6.1 C

0 W/m

0.00 mm

07:45

-5.9 C

1019.3 hpa

75 %

4.8 km/h aus 117

11.3 km/h aus N

-9.7 C

-8.4 C

-8.2 C

-6.1 C

0 W/m

0.00 mm

07:50

-5.9 C

1019.3 hpa

75 %

6.4 km/h aus 117

12.9 km/h aus NNE

-9.7 C

-9.2 C

-9.1 C

-6.1 C

0 W/m

0.00 mm

07:55

-6.0 C

1019.3 hpa

75 %

4.8 km/h aus 117

12.9 km/h aus N

-9.7 C

-8.4 C

-8.3 C

-6.2 C

0 W/m

0.00 mm

08:00

-6.0 C

1019.4 hpa

75 %

3.2 km/h aus 117

8.0 km/h aus N

-9.7 C

-7.3 C

-7.2 C

-6.2 C

0 W/m

0.00 mm

08:05

-6.0 C

1019.4 hpa

75 %

3.2 km/h aus 117

9.7 km/h aus N

-9.7 C

-7.3 C

-7.2 C

-6.2 C

0 W/m

0.00 mm

08:10

-6.1 C

1019.4 hpa

75 %

3.2 km/h aus 117

8.0 km/h aus N

-9.8 C

-7.4 C

-7.2 C

-6.2 C

0 W/m

0.00 mm

08:15

-6.1 C

1019.9 hpa

75 %

3.2 km/h aus 117

9.7 km/h aus N

-9.8 C

-7.4 C

-7.2 C

-6.2 C

0 W/m

0.00 mm

08:20

-6.1 C

1019.9 hpa

75 %

3.2 km/h aus 116

9.7 km/h aus N

-9.8 C

-7.4 C

-7.2 C

-6.2 C

0 W/m

0.00 mm

08:25

-6.1 C

1019.9 hpa

75 %

4.8 km/h aus 116

9.7 km/h aus N

-9.8 C

-8.5 C

-8.3 C

-6.2 C

0 W/m

0.00 mm

08:30

-6.1 C

1020.3 hpa

74 %

4.8 km/h aus 117

11.3 km/h aus N

-10.0 C

-8.6 C

-8.4 C

-6.3 C

0 W/m

0.00 mm

08:35

-6.1 C

1020.3 hpa

74 %

1.6 km/h aus 118

6.4 km/h aus N

-10.0 C

-6.3 C

-6.1 C

-6.3 C

0 W/m

0.00 mm

08:40

-6.1 C

1020.3 hpa

74 %

1.6 km/h aus 115

8.0 km/h aus N

-10.0 C

-6.3 C

-6.1 C

-6.3 C

4 W/m

0.00 mm

08:45

-6.1 C

1020.6 hpa

74 %

1.6 km/h aus 117

6.4 km/h aus N

-10.0 C

-6.3 C

-6.1 C

-6.3 C

6 W/m

0.00 mm

08:50

-6.1 C

1020.6 hpa

74 %

1.6 km/h aus 116

6.4 km/h aus N

-10.0 C

-6.3 C

-6.1 C

-6.3 C

10 W/m

0.00 mm

08:55

-6.1 C

1020.6 hpa

74 %

0.0 km/h aus 117

4.8 km/h aus N

-10.0 C

-6.3 C

-6.1 C

-6.3 C

12 W/m

0.00 mm

09:00

-6.1 C

1021.1 hpa

74 %

1.6 km/h aus 117

4.8 km/h aus N

-9.9 C

-6.2 C

-6.1 C

-6.2 C

12 W/m

0.00 mm

09:05

-6.1 C

1021.1 hpa

74 %

1.6 km/h aus 116

6.4 km/h aus N

-9.9 C

-6.2 C

-6.1 C

-6.2 C

14 W/m

0.00 mm

09:10

-6.1 C

1021.1 hpa

74 %

1.6 km/h aus 115

4.8 km/h aus N

-9.9 C

-6.2 C

-6.1 C

-6.2 C

16 W/m

0.00 mm

09:15

-6.0 C

1021.5 hpa

74 %

0.0 km/h aus 117

4.8 km/h aus N

-9.9 C

-6.2 C

-6.0 C

-6.2 C

18 W/m

0.00 mm

09:20

-6.0 C

1021.5 hpa

74 %

0.0 km/h aus 117

0.0 km/h aus ---

-9.9 C

-6.2 C

-6.0 C

-6.2 C

20 W/m

0.00 mm

09:25

-6.0 C

1021.5 hpa

74 %

1.6 km/h aus 117

4.8 km/h aus N

-9.9 C

-6.2 C

-6.0 C

-6.2 C

23 W/m

0.00 mm

09:30

-5.9 C

1021.9 hpa

73 %

1.6 km/h aus 117

4.8 km/h aus N

-10.0 C

-6.1 C

-5.9 C

-6.1 C

23 W/m

0.00 mm

09:35

-5.9 C

1021.9 hpa

73 %

1.6 km/h aus 116

4.8 km/h aus N

-10.0 C

-6.1 C

-5.9 C

-6.1 C

26 W/m

0.00 mm

09:40

-5.9 C

1021.9 hpa

73 %

1.6 km/h aus 117

6.4 km/h aus N

-10.0 C

-6.1 C

-5.9 C

-6.1 C

26 W/m

0.00 mm

09:45

-5.8 C

1022.1 hpa

73 %

3.2 km/h aus 116

6.4 km/h aus N

-9.9 C

-7.2 C

-7.0 C

-6.0 C

28 W/m

0.00 mm

09:50

-5.8 C

1022.1 hpa

73 %

3.2 km/h aus 116

6.4 km/h aus N

-9.8 C

-7.1 C

-6.9 C

-5.9 C

29 W/m

0.00 mm

09:55

-5.7 C

1022.1 hpa

73 %

4.8 km/h aus 117

8.0 km/h aus N

-9.8 C

-8.1 C

-7.9 C

-5.9 C

31 W/m

0.00 mm

10:00

-5.7 C

1022.5 hpa

73 %

4.8 km/h aus 117

11.3 km/h aus NNW

-9.7 C

-8.1 C

-7.9 C

-5.8 C

32 W/m

0.00 mm

10:05

-5.6 C

1022.5 hpa

72 %

4.8 km/h aus 117

8.0 km/h aus NNW

-9.8 C

-8.0 C

-7.8 C

-5.8 C

32 W/m

0.00 mm

10:10

-5.4 C

1022.5 hpa

72 %

3.2 km/h aus 117

8.0 km/h aus NNW

-9.7 C

-6.8 C

-6.6 C

-5.7 C

33 W/m

0.00 mm

10:15

-5.4 C

1022.6 hpa

72 %

1.6 km/h aus 116

4.8 km/h aus NNW

-9.6 C

-5.6 C

-5.4 C

-5.6 C

33 W/m

0.00 mm

10:20

-5.3 C

1022.6 hpa

72 %

3.2 km/h aus 117

6.4 km/h aus NNW

-9.6 C

-6.7 C

-6.4 C

-5.6 C

35 W/m

0.00 mm

10:25

-5.2 C

1022.6 hpa

72 %

1.6 km/h aus 115

6.4 km/h aus NNW

-9.5 C

-5.4 C

-5.2 C

-5.4 C

36 W/m

0.00 mm

10:30

-5.2 C

1023.0 hpa

72 %

4.8 km/h aus 116

9.7 km/h aus NNW

-9.4 C

-7.6 C

-7.3 C

-5.4 C

37 W/m

0.00 mm

10:35

-5.1 C

1023.0 hpa

71 %

6.4 km/h aus 116

11.3 km/h aus NNW

-9.6 C

-8.3 C

-8.1 C

-5.3 C

40 W/m

0.00 mm

10:40

-5.0 C

1023.0 hpa

71 %

4.8 km/h aus 116

8.0 km/h aus NNW

-9.4 C

-7.4 C

-7.2 C

-5.2 C

40 W/m

0.00 mm

10:45

-4.9 C

1023.4 hpa

71 %

3.2 km/h aus 118

8.0 km/h aus NNW

-9.3 C

-6.2 C

-5.9 C

-5.1 C

40 W/m

0.00 mm

10:50

-4.8 C

1023.4 hpa

71 %

3.2 km/h aus 117

9.7 km/h aus NNW

-9.2 C

-6.1 C

-5.8 C

-5.0 C

40 W/m

0.00 mm

10:55

-4.7 C

1023.4 hpa

71 %

6.4 km/h aus 116

11.3 km/h aus NNW

-9.1 C

-7.8 C

-7.6 C

-4.9 C

40 W/m

0.00 mm

11:00

-4.6 C

1023.6 hpa

71 %

3.2 km/h aus 116

9.7 km/h aus NNE

-9.0 C

-5.8 C

-5.6 C

-4.8 C

41 W/m

0.00 mm

11:05

-4.5 C

1023.6 hpa

71 %

3.2 km/h aus 117

9.7 km/h aus NNE

-9.0 C

-5.7 C

-5.5 C

-4.7 C

42 W/m

0.00 mm

11:10

-4.4 C

1023.6 hpa

71 %

3.2 km/h aus 116

8.0 km/h aus N

-8.9 C

-5.7 C

-5.4 C

-4.7 C

46 W/m

0.00 mm

11:15

-4.3 C

1023.7 hpa

71 %

4.8 km/h aus 117

9.7 km/h aus N

-8.8 C

-6.6 C

-6.4 C

-4.6 C

47 W/m

0.00 mm

11:20

-4.2 C

1023.7 hpa

70 %

4.8 km/h aus 117

9.7 km/h aus N

-8.9 C

-6.5 C

-6.3 C

-4.4 C

54 W/m

0.00 mm

11:25

-3.9 C

1023.7 hpa

70 %

4.8 km/h aus 115

9.7 km/h aus NNW

-8.6 C

-6.1 C

-5.9 C

-4.1 C

83 W/m

0.00 mm

11:30

-3.6 C

1024.2 hpa

71 %

4.8 km/h aus 117

11.3 km/h aus NW

-8.1 C

-5.7 C

-5.5 C

-3.8 C

102 W/m

0.00 mm

11:35

-3.3 C

1024.2 hpa

72 %

4.8 km/h aus 117

11.3 km/h aus N

-7.7 C

-5.5 C

-5.3 C

-3.6 C

103 W/m

0.00 mm

11:40

-3.2 C

1024.2 hpa

73 %

3.2 km/h aus 115

14.5 km/h aus N

-7.4 C

-4.3 C

-4.1 C

-3.4 C

88 W/m

0.00 mm

11:45

-3.2 C

1024.5 hpa

73 %

3.2 km/h aus 117

6.4 km/h aus N

-7.4 C

-4.3 C

-4.1 C

-3.4 C

78 W/m

0.00 mm

11:50

-3.1 C

1024.5 hpa

74 %

3.2 km/h aus 115

8.0 km/h aus N

-7.0 C

-4.2 C

-3.9 C

-3.3 C

70 W/m

0.00 mm

11:55

-3.0 C

1024.5 hpa

74 %

3.2 km/h aus 117

8.0 km/h aus N

-7.0 C

-4.1 C

-3.9 C

-3.2 C

73 W/m

0.00 mm

12:00

-2.9 C

1024.6 hpa

74 %

3.2 km/h aus 117

6.4 km/h aus N

-6.9 C

-4.1 C

-3.8 C

-3.2 C

83 W/m

0.00 mm

12:05

-2.8 C

1024.6 hpa

75 %

1.6 km/h aus 117

6.4 km/h aus N

-6.6 C

-3.1 C

-2.8 C

-3.1 C

73 W/m

0.00 mm

12:10

-2.7 C

1024.6 hpa

75 %

1.6 km/h aus 117

4.8 km/h aus N

-6.5 C

-2.9 C

-2.7 C

-2.9 C

70 W/m

0.00 mm

12:15

-2.7 C

1024.6 hpa

75 %

1.6 km/h aus 117

4.8 km/h aus N

-6.5 C

-2.9 C

-2.7 C

-2.9 C

65 W/m

0.00 mm

12:20

-2.6 C

1024.6 hpa

75 %

1.6 km/h aus 116

4.8 km/h aus N

-6.4 C

-2.8 C

-2.6 C

-2.8 C

71 W/m

0.00 mm

12:25

-2.6 C

1024.6 hpa

75 %

1.6 km/h aus 116

4.8 km/h aus N

-6.4 C

-2.8 C

-2.6 C

-2.8 C

79 W/m

0.00 mm

12:30

-2.6 C

1024.6 hpa

75 %

0.0 km/h aus 116

4.8 km/h aus N

-6.4 C

-2.8 C

-2.6 C

-2.8 C

89 W/m

0.00 mm

12:35

-2.5 C

1024.6 hpa

75 %

1.6 km/h aus 116

6.4 km/h aus N

-6.3 C

-2.7 C

-2.5 C

-2.7 C

91 W/m

0.00 mm

12:40

-2.5 C

1024.6 hpa

75 %

1.6 km/h aus 117

4.8 km/h aus N

-6.3 C

-2.7 C

-2.5 C

-2.7 C

93 W/m

0.00 mm

12:45

-2.4 C

1024.6 hpa

76 %

1.6 km/h aus 115

4.8 km/h aus N

-6.1 C

-2.7 C

-2.4 C

-2.7 C

95 W/m

0.00 mm

12:50

-2.4 C

1024.6 hpa

76 %

1.6 km/h aus 117

4.8 km/h aus N

-6.1 C

-2.7 C

-2.4 C

-2.7 C

99 W/m

0.00 mm

12:55

-2.4 C

1024.6 hpa

76 %

1.6 km/h aus 118

4.8 km/h aus N

-6.0 C

-2.6 C

-2.4 C

-2.6 C

95 W/m

0.00 mm

13:00

-2.4 C

1024.7 hpa

76 %

0.0 km/h aus 117

4.8 km/h aus N

-6.0 C

-2.6 C

-2.4 C

-2.6 C

99 W/m

0.00 mm

13:05

-2.4 C

1024.7 hpa

76 %

0.0 km/h aus 117

3.2 km/h aus N

-6.1 C

-2.7 C

-2.4 C

-2.7 C

92 W/m

0.00 mm

13:10

-2.3 C

1024.7 hpa

76 %

0.0 km/h aus 117

3.2 km/h aus N

-6.0 C

-2.6 C

-2.3 C

-2.6 C

90 W/m

0.00 mm

13:15

-2.3 C

1024.9 hpa

76 %

0.0 km/h aus 117

3.2 km/h aus N

-5.9 C

-2.5 C

-2.3 C

-2.5 C

87 W/m

0.00 mm

13:20

-2.2 C

1024.9 hpa

76 %

0.0 km/h aus 117

3.2 km/h aus N

-5.8 C

-2.4 C

-2.2 C

-2.4 C

75 W/m

0.00 mm

13:25

-2.1 C

1024.9 hpa

76 %

1.6 km/h aus 117

6.4 km/h aus N

-5.7 C

-2.3 C

-2.1 C

-2.3 C

71 W/m

0.00 mm

13:30

-2.0 C

1025.1 hpa

76 %

1.6 km/h aus 117

4.8 km/h aus N

-5.7 C

-2.2 C

-2.0 C

-2.2 C

67 W/m

0.00 mm

13:35

-1.9 C

1025.1 hpa

76 %

1.6 km/h aus 116

4.8 km/h aus N

-5.6 C

-2.2 C

-1.9 C

-2.2 C

68 W/m

0.00 mm

13:40

-1.9 C

1025.1 hpa

76 %

1.6 km/h aus 117

4.8 km/h aus N

-5.6 C

-2.2 C

-1.9 C

-2.2 C

68 W/m

0.00 mm

13:45

-1.9 C

1025.1 hpa

76 %

3.2 km/h aus 116

6.4 km/h aus N

-5.6 C

-2.9 C

-2.7 C

-2.1 C

69 W/m

0.00 mm

13:50

-1.9 C

1025.1 hpa

76 %

3.2 km/h aus 116

6.4 km/h aus NW

-5.6 C

-2.9 C

-2.7 C

-2.1 C

67 W/m

0.00 mm

13:55

-1.8 C

1025.1 hpa

76 %

1.6 km/h aus 117

3.2 km/h aus NW

-5.5 C

-2.1 C

-1.8 C

-2.1 C

66 W/m

0.00 mm

14:00

-1.8 C

1025.2 hpa

76 %

1.6 km/h aus 118

6.4 km/h aus NW

-5.5 C

-2.0 C

-1.8 C

-2.0 C

67 W/m

0.00 mm

14:05

-1.8 C

1025.2 hpa

76 %

3.2 km/h aus 117

6.4 km/h aus NW

-5.5 C

-2.7 C

-2.5 C

-2.0 C

67 W/m

0.00 mm

14:10

-1.8 C

1025.2 hpa

76 %

1.6 km/h aus 117

4.8 km/h aus NW

-5.5 C

-2.0 C

-1.8 C

-2.0 C

69 W/m

0.00 mm

14:15

-1.8 C

1025.2 hpa

76 %

4.8 km/h aus 117

8.0 km/h aus NW

-5.5 C

-3.7 C

-3.5 C

-2.0 C

63 W/m

0.00 mm

14:20

-1.8 C

1025.2 hpa

76 %

3.2 km/h aus 117

4.8 km/h aus NW

-5.5 C

-2.8 C

-2.6 C

-2.1 C

65 W/m

0.00 mm

14:25

-1.8 C

1025.2 hpa

76 %

1.6 km/h aus 116

4.8 km/h aus NW

-5.5 C

-2.0 C

-1.8 C

-2.0 C

81 W/m

0.00 mm

14:30

-1.7 C

1025.3 hpa

76 %

3.2 km/h aus 117

6.4 km/h aus NW

-5.4 C

-2.7 C

-2.4 C

-1.9 C

85 W/m

0.00 mm

14:35

-1.7 C

1025.3 hpa

76 %

3.2 km/h aus 117

6.4 km/h aus NW

-5.4 C

-2.7 C

-2.4 C

-1.9 C

72 W/m

0.00 mm

14:40

-1.7 C

1025.3 hpa

76 %

1.6 km/h aus 117

6.4 km/h aus NW

-5.4 C

-1.9 C

-1.7 C

-1.9 C

56 W/m

0.00 mm

14:45

-1.8 C

1025.5 hpa

76 %

4.8 km/h aus 116

8.0 km/h aus NW

-5.5 C

-3.7 C

-3.5 C

-2.0 C

43 W/m

0.00 mm

14:50

-1.8 C

1025.5 hpa

76 %

3.2 km/h aus 117

6.4 km/h aus NW

-5.5 C

-2.7 C

-2.5 C

-2.0 C

33 W/m

0.00 mm

14:55

-1.8 C

1025.5 hpa

76 %

3.2 km/h aus 117

6.4 km/h aus NW

-5.5 C

-2.7 C

-2.5 C

-2.0 C

32 W/m

0.00 mm

15:00

-1.8 C

1025.5 hpa

76 %

4.8 km/h aus 117

8.0 km/h aus NW

-5.5 C

-3.7 C

-3.5 C

-2.0 C

33 W/m

0.00 mm

15:05

-1.8 C

1025.5 hpa

76 %

3.2 km/h aus 118

8.0 km/h aus WNW

-5.5 C

-2.7 C

-2.5 C

-2.0 C

33 W/m

0.00 mm

15:10

-1.8 C

1025.5 hpa

76 %

3.2 km/h aus 117

8.0 km/h aus WNW

-5.5 C

-2.8 C

-2.6 C

-2.1 C

32 W/m

0.00 mm

15:15

-1.8 C

1025.6 hpa

76 %

3.2 km/h aus 116

8.0 km/h aus WNW

-5.5 C

-2.8 C

-2.6 C

-2.1 C

30 W/m

0.00 mm

15:20

-1.8 C

1025.6 hpa

76 %

4.8 km/h aus 117

6.4 km/h aus WNW

-5.5 C

-3.8 C

-3.6 C

-2.1 C

28 W/m

0.00 mm

15:25

-1.8 C

1025.6 hpa

76 %

3.2 km/h aus 115

6.4 km/h aus WNW

-5.5 C

-2.8 C

-2.6 C

-2.1 C

26 W/m

0.00 mm

15:30

-1.8 C

1025.7 hpa

76 %

3.2 km/h aus 116

6.4 km/h aus WNW

-5.5 C

-2.8 C

-2.6 C

-2.1 C

25 W/m

0.00 mm

15:35

-1.8 C

1025.7 hpa

76 %

1.6 km/h aus 116

6.4 km/h aus WNW

-5.5 C

-2.1 C

-1.8 C

-2.1 C

22 W/m

0.00 mm

15:40

-1.9 C

1025.7 hpa

76 %

1.6 km/h aus 116

6.4 km/h aus WNW

-5.6 C

-2.1 C

-1.9 C

-2.1 C

20 W/m

0.00 mm

15:45

-1.9 C

1026.0 hpa

76 %

1.6 km/h aus 116

4.8 km/h aus WNW

-5.6 C

-2.1 C

-1.9 C

-2.1 C

18 W/m

0.00 mm

15:50

-1.9 C

1026.0 hpa

76 %

1.6 km/h aus 115

4.8 km/h aus WNW

-5.6 C

-2.2 C

-1.9 C

-2.2 C

16 W/m

0.00 mm

15:55

-2.0 C

1026.0 hpa

76 %

1.6 km/h aus 116

4.8 km/h aus WNW

-5.7 C

-2.2 C

-2.0 C

-2.2 C

13 W/m

0.00 mm

16:00

-2.0 C

1026.2 hpa

76 %

0.0 km/h aus 116

3.2 km/h aus WNW

-5.7 C

-2.2 C

-2.0 C

-2.2 C

12 W/m

0.00 mm

16:05

-2.1 C

1026.2 hpa

76 %

0.0 km/h aus 116

3.2 km/h aus WNW

-5.7 C

-2.3 C

-2.1 C

-2.3 C

10 W/m

0.00 mm

16:10

-2.1 C

1026.2 hpa

76 %

0.0 km/h aus 118

0.0 km/h aus ---

-5.8 C

-2.3 C

-2.1 C

-2.3 C

8 W/m

0.00 mm

16:15

-2.2 C

1026.4 hpa

76 %

0.0 km/h aus 116

3.2 km/h aus WNW

-5.8 C

-2.4 C

-2.2 C

-2.4 C

6 W/m

0.00 mm

16:20

-2.3 C

1026.4 hpa

76 %

0.0 km/h aus 115

1.6 km/h aus WNW

-5.9 C

-2.5 C

-2.3 C

-2.5 C

4 W/m

0.00 mm

16:25

-2.3 C

1026.4 hpa

76 %

1.6 km/h aus 116

4.8 km/h aus WNW

-6.0 C

-2.6 C

-2.3 C

-2.6 C

0 W/m

0.00 mm

16:30

-2.4 C

1026.8 hpa

76 %

0.0 km/h aus 117

3.2 km/h aus WNW

-6.1 C

-2.7 C

-2.4 C

-2.7 C

0 W/m

0.00 mm

16:35

-2.6 C

1026.8 hpa

76 %

0.0 km/h aus 117

1.6 km/h aus WNW

-6.2 C

-2.8 C

-2.6 C

-2.8 C

0 W/m

0.00 mm

16:40

-2.6 C

1026.8 hpa

76 %

0.0 km/h aus 117

3.2 km/h aus WNW

-6.3 C

-2.8 C

-2.6 C

-2.8 C

0 W/m

0.00 mm

16:45

-2.7 C

1026.8 hpa

76 %

0.0 km/h aus 117

3.2 km/h aus WNW

-6.4 C

-2.9 C

-2.7 C

-2.9 C

0 W/m

0.00 mm

16:50

-2.8 C

1026.8 hpa

76 %

0.0 km/h aus 116

3.2 km/h aus WNW

-6.4 C

-3.0 C

-2.8 C

-3.0 C

0 W/m

0.00 mm

16:55

-2.9 C

1026.8 hpa

76 %

0.0 km/h aus 116

3.2 km/h aus WNW

-6.6 C

-3.2 C

-2.9 C

-3.2 C

0 W/m

0.00 mm

17:00

-3.1 C

1027.2 hpa

76 %

0.0 km/h aus 116

0.0 km/h aus ---

-6.7 C

-3.3 C

-3.1 C

-3.3 C

0 W/m

0.00 mm

17:05

-3.2 C

1027.2 hpa

76 %

1.6 km/h aus 115

3.2 km/h aus WNW

-6.8 C

-3.4 C

-3.2 C

-3.4 C

0 W/m

0.00 mm

17:10

-3.3 C

1027.2 hpa

76 %

1.6 km/h aus 112

4.8 km/h aus WNW

-6.9 C

-3.5 C

-3.3 C

-3.5 C

0 W/m

0.00 mm

17:15

-3.3 C

1027.3 hpa

76 %

1.6 km/h aus 117

6.4 km/h aus WNW

-7.0 C

-3.6 C

-3.3 C

-3.6 C

0 W/m

0.00 mm

17:20

-3.3 C

1027.3 hpa

76 %

1.6 km/h aus 117

6.4 km/h aus WNW

-7.0 C

-3.6 C

-3.3 C

-3.6 C

0 W/m

0.00 mm

17:25

-3.3 C

1027.3 hpa

76 %

1.6 km/h aus 117

4.8 km/h aus WNW

-6.9 C

-3.5 C

-3.3 C

-3.5 C

0 W/m

0.00 mm

17:30

-3.3 C

1027.5 hpa

76 %

1.6 km/h aus 115

4.8 km/h aus WNW

-6.9 C

-3.5 C

-3.3 C

-3.5 C

0 W/m

0.00 mm

17:35

-3.3 C

1027.5 hpa

76 %

3.2 km/h aus 117

3.2 km/h aus WNW

-6.9 C

-4.4 C

-4.2 C

-3.5 C

0 W/m

0.00 mm

17:40

-3.2 C

1027.5 hpa

76 %

1.6 km/h aus 117

3.2 km/h aus WNW

-6.9 C

-3.4 C

-3.2 C

-3.4 C

0 W/m

0.00 mm

17:45

-3.2 C

1027.5 hpa

75 %

1.6 km/h aus 117

6.4 km/h aus WNW

-7.0 C

-3.4 C

-3.2 C

-3.4 C

0 W/m

0.00 mm

17:50

-3.2 C

1027.5 hpa

75 %

1.6 km/h aus 116

6.4 km/h aus WNW

-7.0 C

-3.4 C

-3.2 C

-3.4 C

0 W/m

0.00 mm

17:55

-3.1 C

1027.5 hpa

75 %

3.2 km/h aus 116

6.4 km/h aus WNW

-6.9 C

-4.2 C

-3.9 C

-3.3 C

0 W/m

0.00 mm

18:00

-2.9 C

1027.7 hpa

75 %

4.8 km/h aus 117

8.0 km/h aus WNW

-6.8 C

-5.1 C

-4.8 C

-3.2 C

0 W/m

0.00 mm

18:05

-2.8 C

1027.7 hpa

74 %

1.6 km/h aus 117

6.4 km/h aus WNW

-6.8 C

-3.0 C

-2.8 C

-3.0 C

0 W/m

0.00 mm

18:10

-2.7 C

1027.7 hpa

74 %

1.6 km/h aus 117

6.4 km/h aus WNW

-6.7 C

-2.9 C

-2.7 C

-2.9 C

0 W/m

0.00 mm

18:15

-2.6 C

1027.8 hpa

74 %

1.6 km/h aus 117

4.8 km/h aus WNW

-6.6 C

-2.8 C

-2.6 C

-2.8 C

0 W/m

0.00 mm

18:20

-2.5 C

1027.8 hpa

74 %

1.6 km/h aus 118

4.8 km/h aus WNW

-6.5 C

-2.7 C

-2.5 C

-2.7 C

0 W/m

0.00 mm

18:25

-2.4 C

1027.8 hpa

73 %

0.0 km/h aus 116

3.2 km/h aus WNW

-6.6 C

-2.7 C

-2.4 C

-2.7 C

0 W/m

0.00 mm

18:30

-2.3 C

1028.0 hpa

73 %

0.0 km/h aus 117

4.8 km/h aus WNW

-6.5 C

-2.6 C

-2.3 C

-2.6 C

0 W/m

0.00 mm

18:35

-2.3 C

1028.0 hpa

73 %

3.2 km/h aus 117

6.4 km/h aus WNW

-6.5 C

-3.3 C

-3.1 C

-2.5 C

0 W/m

0.00 mm

18:40

-2.2 C

1028.0 hpa

73 %

3.2 km/h aus 114

6.4 km/h aus WNW

-6.4 C

-3.2 C

-2.9 C

-2.4 C

0 W/m

0.00 mm

18:45

-2.1 C

1028.1 hpa

72 %

3.2 km/h aus 116

6.4 km/h aus WNW

-6.4 C

-3.1 C

-2.8 C

-2.3 C

0 W/m

0.00 mm

18:50

-1.9 C

1028.1 hpa

72 %

3.2 km/h aus 117

6.4 km/h aus WNW

-6.3 C

-3.0 C

-2.7 C

-2.2 C

0 W/m

0.00 mm

18:55

-1.8 C

1028.1 hpa

72 %

3.2 km/h aus 117

6.4 km/h aus WNW

-6.2 C

-2.8 C

-2.5 C

-2.1 C

0 W/m

0.00 mm

19:00

-1.8 C

1027.9 hpa

72 %

1.6 km/h aus 117

6.4 km/h aus WNW

-6.2 C

-2.1 C

-1.8 C

-2.1 C

0 W/m

0.00 mm

19:05

-1.7 C

1027.9 hpa

72 %

1.6 km/h aus 116

3.2 km/h aus WNW

-6.1 C

-2.0 C

-1.7 C

-2.0 C

0 W/m

0.00 mm

19:10

-1.7 C

1027.9 hpa

72 %

1.6 km/h aus 116

8.0 km/h aus WNW

-6.1 C

-1.9 C

-1.7 C

-1.9 C

0 W/m

0.00 mm

19:15

-1.6 C

1028.0 hpa

72 %

4.8 km/h aus 116

9.7 km/h aus WNW

-6.0 C

-3.6 C

-3.3 C

-1.9 C

0 W/m

0.00 mm

19:20

-1.5 C

1028.0 hpa

72 %

3.2 km/h aus 116

8.0 km/h aus WNW

-5.9 C

-2.5 C

-2.2 C

-1.8 C

0 W/m

0.00 mm

19:25

-1.4 C

1028.0 hpa

71 %

1.6 km/h aus 117

4.8 km/h aus WNW

-6.0 C

-1.7 C

-1.4 C

-1.7 C

0 W/m

0.00 mm

19:30

-1.4 C

1028.2 hpa

71 %

1.6 km/h aus 117

4.8 km/h aus WNW

-6.0 C

-1.7 C

-1.4 C

-1.7 C

0 W/m

0.00 mm

19:35

-1.3 C

1028.2 hpa

71 %

3.2 km/h aus 116

6.4 km/h aus WNW

-5.9 C

-2.3 C

-2.1 C

-1.6 C

0 W/m

0.00 mm

19:40

-1.3 C

1028.2 hpa

71 %

1.6 km/h aus 117

4.8 km/h aus WNW

-5.9 C

-1.6 C

-1.3 C

-1.6 C

0 W/m

0.00 mm

19:45

-1.2 C

1028.2 hpa

71 %

0.0 km/h aus 117

0.0 km/h aus ---

-5.8 C

-1.5 C

-1.2 C

-1.5 C

0 W/m

0.00 mm

19:50

-1.2 C

1028.2 hpa

71 %

1.6 km/h aus 117

4.8 km/h aus WNW

-5.8 C

-1.5 C

-1.2 C

-1.5 C

0 W/m

0.00 mm

19:55

-1.2 C

1028.2 hpa

71 %

3.2 km/h aus 117

6.4 km/h aus WNW

-5.8 C

-2.1 C

-1.8 C

-1.4 C

0 W/m

0.00 mm

20:00

-1.2 C

1028.3 hpa

71 %

0.0 km/h aus 117

3.2 km/h aus WNW

-5.8 C

-1.4 C

-1.2 C

-1.4 C

0 W/m

0.00 mm

20:05

-1.1 C

1028.3 hpa

71 %

3.2 km/h aus 117

6.4 km/h aus WNW

-5.7 C

-2.1 C

-1.8 C

-1.4 C

0 W/m

0.00 mm

20:10

-1.1 C

1028.3 hpa

71 %

4.8 km/h aus 116

8.0 km/h aus WNW

-5.7 C

-2.9 C

-2.7 C

-1.3 C

0 W/m

0.00 mm

20:15

-1.1 C

1027.9 hpa

71 %

1.6 km/h aus 117

6.4 km/h aus WNW

-5.7 C

-1.3 C

-1.1 C

-1.3 C

0 W/m

0.00 mm

20:20

-1.1 C

1027.9 hpa

71 %

4.8 km/h aus 117

8.0 km/h aus WNW

-5.7 C

-2.9 C

-2.7 C

-1.3 C

0 W/m

0.00 mm

20:25

-1.1 C

1027.9 hpa

71 %

3.2 km/h aus 117

6.4 km/h aus WNW

-5.7 C

-2.0 C

-1.7 C

-1.3 C

0 W/m

0.00 mm

20:30

-1.1 C

1027.8 hpa

72 %

3.2 km/h aus 117

4.8 km/h aus WNW

-5.5 C

-2.0 C

-1.7 C

-1.3 C

0 W/m

0.00 mm

20:35

-1.1 C

1027.8 hpa

72 %

1.6 km/h aus 117

4.8 km/h aus WNW

-5.5 C

-1.3 C

-1.1 C

-1.3 C

0 W/m

0.00 mm

20:40

-1.2 C

1027.8 hpa

72 %

1.6 km/h aus 116

6.4 km/h aus WNW

-5.6 C

-1.4 C

-1.2 C

-1.4 C

0 W/m

0.00 mm

20:45

-1.3 C

1027.8 hpa

72 %

3.2 km/h aus 117

6.4 km/h aus WNW

-5.7 C

-2.3 C

-2.0 C

-1.6 C

0 W/m

0.00 mm

20:50

-1.3 C

1027.8 hpa

72 %

4.8 km/h aus 115

8.0 km/h aus WNW

-5.7 C

-3.3 C

-3.0 C

-1.6 C

0 W/m

0.00 mm

20:55

-1.5 C

1027.8 hpa

73 %

4.8 km/h aus 116

8.0 km/h aus WNW

-5.7 C

-3.4 C

-3.2 C

-1.7 C

0 W/m

0.00 mm

21:00

-1.6 C

1027.8 hpa

73 %

4.8 km/h aus 114

9.7 km/h aus WNW

-5.8 C

-3.6 C

-3.3 C

-1.8 C

0 W/m

0.00 mm

21:05

-1.7 C

1027.8 hpa

73 %

4.8 km/h aus 116

9.7 km/h aus WSW

-5.9 C

-3.7 C

-3.4 C

-1.9 C

0 W/m

0.00 mm

21:10

-1.8 C

1027.8 hpa

73 %

6.4 km/h aus 117

9.7 km/h aus SW

-6.0 C

-4.4 C

-4.2 C

-2.0 C

0 W/m

0.00 mm

21:15

-1.8 C

1027.9 hpa

73 %

4.8 km/h aus 117

11.3 km/h aus SW

-6.0 C

-3.7 C

-3.5 C

-2.0 C

0 W/m

0.00 mm

21:20

-1.7 C

1027.9 hpa

73 %

6.4 km/h aus 116

11.3 km/h aus SW

-5.9 C

-4.4 C

-4.2 C

-1.9 C

0 W/m

0.00 mm

21:25

-1.7 C

1027.9 hpa

72 %

6.4 km/h aus 116

9.7 km/h aus SW

-6.1 C

-4.4 C

-4.1 C

-1.9 C

0 W/m

0.00 mm

21:30

-1.6 C

1027.9 hpa

72 %

6.4 km/h aus 118

11.3 km/h aus SW

-6.0 C

-4.3 C

-4.1 C

-1.9 C

0 W/m

0.00 mm

21:35

-1.6 C

1027.9 hpa

72 %

6.4 km/h aus 115

9.7 km/h aus SW

-5.9 C

-4.3 C

-4.0 C

-1.8 C

0 W/m

0.00 mm

21:40

-1.5 C

1027.9 hpa

72 %

6.4 km/h aus 116

9.7 km/h aus SW

-5.9 C

-4.2 C

-3.9 C

-1.8 C

0 W/m

0.00 mm

21:45

-1.5 C

1027.8 hpa

72 %

6.4 km/h aus 117

11.3 km/h aus SW

-5.9 C

-4.2 C

-3.9 C

-1.8 C

0 W/m

0.00 mm

21:50

-1.4 C

1027.8 hpa

72 %

4.8 km/h aus 116

8.0 km/h aus SW

-5.8 C

-3.4 C

-3.1 C

-1.7 C

0 W/m

0.00 mm

21:55

-1.4 C

1027.8 hpa

72 %

4.8 km/h aus 116

8.0 km/h aus SW

-5.8 C

-3.3 C

-3.1 C

-1.7 C

0 W/m

0.00 mm

22:00

-1.3 C

1027.6 hpa

72 %

4.8 km/h aus 117

8.0 km/h aus SW

-5.7 C

-3.3 C

-3.0 C

-1.6 C

0 W/m

0.00 mm

22:05

-1.3 C

1027.6 hpa

72 %

4.8 km/h aus 117

11.3 km/h aus SW

-5.7 C

-3.2 C

-2.9 C

-1.6 C

0 W/m

0.00 mm

22:10

-1.2 C

1027.6 hpa

72 %

6.4 km/h aus 117

9.7 km/h aus SW

-5.6 C

-3.9 C

-3.6 C

-1.5 C

0 W/m

0.00 mm

22:15

-1.1 C

1027.3 hpa

72 %

4.8 km/h aus 115

8.0 km/h aus SW

-5.5 C

-3.0 C

-2.7 C

-1.4 C

0 W/m

0.00 mm

22:20

-1.1 C

1027.3 hpa

72 %

6.4 km/h aus 117

11.3 km/h aus SW

-5.5 C

-3.7 C

-3.4 C

-1.3 C

0 W/m

0.00 mm

22:25

-0.9 C

1027.3 hpa

71 %

8.0 km/h aus 116

14.5 km/h aus SSW

-5.5 C

-4.1 C

-3.8 C

-1.2 C

0 W/m

0.00 mm

22:30

-0.8 C

1026.8 hpa

71 %

6.4 km/h aus 116

11.3 km/h aus SSW

-5.4 C

-3.4 C

-3.2 C

-1.1 C

0 W/m

0.00 mm

22:35

-0.8 C

1026.8 hpa

72 %

8.0 km/h aus 118

14.5 km/h aus SSW

-5.2 C

-3.9 C

-3.7 C

-1.1 C

0 W/m

0.00 mm

22:40

-0.7 C

1026.8 hpa

72 %

6.4 km/h aus 116

17.7 km/h aus SSW

-5.1 C

-3.3 C

-3.0 C

-1.0 C

0 W/m

0.00 mm

22:45

-0.7 C

1026.8 hpa

72 %

8.0 km/h aus 116

14.5 km/h aus SSW

-5.1 C

-3.8 C

-3.5 C

-0.9 C

0 W/m

0.00 mm

22:50

-0.6 C

1026.8 hpa

72 %

8.0 km/h aus 117

12.9 km/h aus SSW

-5.0 C

-3.7 C

-3.4 C

-0.9 C

0 W/m

0.00 mm

22:55

-0.6 C

1026.8 hpa

72 %

8.0 km/h aus 116

17.7 km/h aus SSW

-5.0 C

-3.7 C

-3.4 C

-0.8 C

0 W/m

0.00 mm

23:00

-0.6 C

1026.4 hpa

72 %

8.0 km/h aus 117

14.5 km/h aus SW

-5.0 C

-3.7 C

-3.4 C

-0.8 C

0 W/m

0.00 mm

23:05

-0.4 C

1026.4 hpa

72 %

8.0 km/h aus 117

16.1 km/h aus SSW

-4.9 C

-3.6 C

-3.3 C

-0.7 C

0 W/m

0.00 mm

23:10

-0.4 C

1026.4 hpa

72 %

11.3 km/h aus 116

20.9 km/h aus SW

-4.8 C

-4.3 C

-4.1 C

-0.7 C

0 W/m

0.00 mm

23:15

-0.3 C

1026.6 hpa

73 %

9.7 km/h aus 117

16.1 km/h aus SSW

-4.6 C

-3.8 C

-3.6 C

-0.6 C

0 W/m

0.00 mm

23:20

-0.3 C

1026.6 hpa

73 %

11.3 km/h aus 117

17.7 km/h aus SSW

-4.5 C

-4.2 C

-3.9 C

-0.5 C

0 W/m

0.00 mm

23:25

-0.3 C

1026.6 hpa

73 %

9.7 km/h aus 116

19.3 km/h aus SW

-4.5 C

-3.8 C

-3.6 C

-0.5 C

0 W/m

0.00 mm

23:30

-0.2 C

1026.2 hpa

73 %

11.3 km/h aus 117

19.3 km/h aus SW

-4.5 C

-4.1 C

-3.9 C

-0.4 C

0 W/m

0.00 mm

23:35

-0.2 C

1026.2 hpa

73 %

11.3 km/h aus 117

17.7 km/h aus SSW

-4.4 C

-4.1 C

-3.8 C

-0.4 C

0 W/m

0.00 mm

23:40

-0.1 C

1026.2 hpa

73 %

12.9 km/h aus 117

20.9 km/h aus SSW

-4.4 C

-4.3 C

-4.1 C

-0.3 C

0 W/m

0.00 mm

23:45

-0.2 C

1026.2 hpa

74 %

9.7 km/h aus 115

16.1 km/h aus SSW

-4.2 C

-3.6 C

-3.4 C

-0.4 C

0 W/m

0.00 mm

23:50

-0.2 C

1026.2 hpa

74 %

12.9 km/h aus 116

20.9 km/h aus S

-4.2 C

-4.4 C

-4.2 C

-0.4 C

0 W/m

0.00 mm

23:55

-0.1 C

1026.2 hpa

74 %

11.3 km/h aus 117

17.7 km/h aus S

-4.2 C

-3.9 C

-3.7 C

-0.3 C

0 W/m

0.00 mm